Regional Weather Roundup
Issued by NWS

Home | Current Version | Previous Version | Graphics & Text | Print | Product List | Glossary On
Versions: 1 2 3 4 5 6 7 8 9 10 11 12 13 14 15 16 17 18 19 20 21 22 23 24 25 26 27 28 29 30 31 32 33 34 35 36 37 38 39 40 41 42 43 44 45 46 47 48 49 50
000
ASUS45 KPSR 312000
RWRAZ

ARIZONA HOURLY REGIONAL WEATHER ROUNDUP
NATIONAL WEATHER SERVICE PHOENIX AZ
100 PM MST MON AUG 31 2015

NOTE: FAIR INDICATES FEW OR NO CLOUDS BELOW 12,000 FEET WITH NO
SIGNIFICANT WEATHER AND/OR OBSTRUCTIONS TO VISIBILITY.

AZZ001>003-036-312100-
NORTHWEST ARIZONA

CITY           SKY/WX    TMP DP  RH WIND       PRES   REMARKS
KINGMAN        MOSUNNY   93  47  20 S7        30.00F
$$

AZZ004>008-015-016-018-312100-
NORTH CENTRAL ARIZONA

CITY           SKY/WX    TMP DP  RH WIND       PRES   REMARKS
GRAND CANYON   CLOUDY    70  52  52 CALM      30.29S THUNDER
WILLIAMS       PTSUNNY   77  54  44 S13G18    30.30F
PRESCOTT       PTSUNNY   85  56  37 S13G25    30.13F
FLAGSTAFF      NOT AVBL
PAYSON         MOSUNNY   86  55  35 VRB6G17   30.17F
PAGE           PTSUNNY   82  57  42 VRB3      30.09F
$$

AZZ009>014-017-312100-
NORTHEAST ARIZONA

CITY           SKY/WX    TMP DP  RH WIND       PRES   REMARKS
WINSLOW        NOT AVBL
SAINT JOHNS    PTSUNNY   75  54  47 S7        30.20F
WINDOW ROCK    PTSUNNY   82  44  26 W9        30.25F
SHOW LOW       MOSUNNY   77  50  38 SW8       30.25F
$$

AZZ023-312100-
GREATER PHOENIX AREA

CITY           SKY/WX    TMP DP  RH WIND       PRES   REMARKS
PHOENIX        MOSUNNY  102  59  24 VRB3      29.83F HX 102
GLENDALE       MOSUNNY  102  61  25 SE7       29.85F HX 103
LUKE AFB       SUNNY    101  61  27 VRB3      29.83F HX 101
DEER VALLEY    SUNNY     99  60  27 VRB5      29.86F
SCOTTSDALE     SUNNY    100  58  24 S9        29.88F
MESA-GATEWAY   MOSUNNY   99  61  28 W6        29.88F
$$

AZZ027-028-312100-
SOUTHWEST MARICOPA COUNTY AND PINAL COUNTY

CITY           SKY/WX    TMP DP  RH WIND       PRES   REMARKS
CASA GRANDE    SUNNY    100  57  23 CALM      29.86F
GILA BEND      MOSUNNY  104  55  19 VRB6      29.79F HX 103
$$

AZZ503-504-507>509-312100-
SOUTHEAST ARIZONA

CITY           SKY/WX    TMP DP  RH WIND       PRES   REMARKS
TUCSON         SUNNY     96  58  27 SE5       29.98F
DAVIS-MONTHAN  SUNNY     95  58  28 VRB6      29.96F
RYAN FIELD     SUNNY     97  61  30 SE3       29.96F
NOGALES        PTSUNNY   82  61  48 NW9G18    30.08S THUNDER
SIERRA VISTA   PTSUNNY   87  55  32 VRB2      30.14F THUNDER
SAFFORD        SUNNY     93  57  29 W8        29.98F
$$

AZZ020-021-025-026-031-312100-
SOUTHWEST ARIZONA

CITY           SKY/WX    TMP DP  RH WIND       PRES   REMARKS
YUMA           MOSUNNY  104  64  27 S16       29.76F HX 107
$$

CAZ031-033-041-043-047-048-061-312100-
SOUTHERN CALIFORNIA

CITY           SKY/WX    TMP DP  RH WIND       PRES   REMARKS
DOWNTOWN L.A.  SUNNY     83  60  45 CALM      29.89F
L.A. AIRPORT   MOSUNNY   79  63  57 W16       29.91F
SAN DIEGO      MOSUNNY   74  61  63 SW10      29.93S
BURBANK        SUNNY     84  62  47 S10G16    29.90F
ONTARIO        MOSUNNY   86  59  39 SW8       29.90F
RIVERSIDE      SUNNY     87  59  38 VRB6      29.89F
PALM SPRINGS   MOSUNNY  102  45  14 E8        29.80F
EL CENTRO NAS  MOSUNNY  103  47  15 CALM      29.77F
IMPERIAL       SUNNY    103  51  17 E7        29.75F HX 100
BLYTHE         SUNNY    104  55  19 SW15      29.78F HX 102
$$

NVZ020-UTZ003-312100-
SOUTHERN NEVADA-UTAH

CITY           SKY/WX    TMP DP  RH WIND       PRES   REMARKS
LAS VEGAS      NOT AVBL
SALT LAKE CITY MOSUNNY   83  39  21 N9        30.05F
$$

NMZ009-TXZ055-312100-
NEW MEXICO-WEST TEXAS

CITY           SKY/WX    TMP DP  RH WIND       PRES   REMARKS
ALBUQUERQUE    MOSUNNY   88  46  23 VRB7      30.14F
EL PASO        MOSUNNY   94  46  19 VRB7      30.04F
$$


........................KEY........................
SKY/WX - SKY CONDITION/WEATHER
TMP    - TEMPERATURE IN FAHRENHEIT
DP     - DEW POINT IN FAHRENHEIT
RH     - RELATIVE HUMIDITY IN PERCENT
WIND   - DIRECTION AND SPEED IN MILES PER HOUR (MPH)
VRB    - VARIABLE WIND DIRECTION
PRES   - MEAN SEA LEVEL PRESSURE IN INCHES OF MERCURY
         F - FALLING PRESSURE   R - RISING PRESSURE
         S - STEADY PRESSURE
VSB    - VISIBILITY IN MILES
HX     - HEAT INDEX IN FAHRENHEIT
WCI    - WIND CHILL INDEX IN FAHRENHEIT
TC     - TEMPERATURE IN CELSIUS WHICH IS ALSO KNOWN AS
         TEMPERATURE IN CENTIGRADE
AFB    - AIR FORCE BASE
         LUKE AFB IS LUKE AIR FORCE BASE
         DAVIS-MONTHAN IS DAVIS-MONTHAN AIR FORCE BASE
NAS    - NAVAL AIR STATION
         EL CENTRO NAS IS EL CENTRO NAVAL AIR STATION
N/A    - NOT AVAILABLE



USA.gov is the U.S. government's official web portal to all federal, state and local government web resources and services.